Location: Newark
(19.4083°N, 89.7712°W)
Time: 10:49:43
(UTC+00:00)

OTV 5 (USA 277) - Visible Passes

Search period start: 21 July 2019 00:00
Search period end: 31 July 2019 00:00
Orbit: 299 x 335 km, 54.5° (Epoch: 13 July)

Date Brightness Start Highest point End Pass type
(mag) Time Alt. Az. Time Alt. Az. Time Alt. Az.
28 Jul ? 10:24:06 10° SSE 10:25:17 12° ESE 10:26:29 10° E visible
29 Jul ? 10:38:12 21° SSW 10:39:43 59° ESE 10:42:18 10° NE visible
30 Jul ? 10:52:52 15° W 10:54:16 23° NW 10:56:28 10° N visible
